Location: Gleizolles
(44.4833°N, 6.7667°E)
Time: 17:28:51
(UTC+00:00)

Transit 2A - Pass Details

Date: 29 June 2024
Orbit: 591 x 960 km, 66.7° (Epoch: 16 July)

Event Time Altitude Azimuth Distance (km) Brightness Sun altitude
Rises 21:37:29 0° 327° (NNW) 3,555 11.2 -17.1°
Reaches altitude 10° 21:39:58 10° 327° (NNW) 2,643 10.1 -17.3°
Maximum altitude 21:46:14 87° 240° (WSW) 964 6.4 -17.8°
Enters shadow 21:49:40 30° 152° (SSE) 1,664 7.1 -18.1°
